Year,Month,Day,Hour,Minute,Value (Times are PST for temperature in C)
2010,01,19,11,20,8.90
2010,01,19,11,21,8.90
2010,01,19,11,22,8.90
2010,01,19,11,23,8.90
2010,01,19,11,24,8.90
2010,01,19,11,25,8.90
2010,01,19,11,26,8.90
2010,01,19,11,27,8.90
2010,01,19,11,28,8.90
2010,01,19,11,29,8.90
2010,01,19,11,30,8.90
2010,01,19,11,31,9.00
2010,01,19,11,32,8.90
2010,01,19,11,33,8.90
2010,01,19,11,34,9.00
2010,01,19,11,35,9.00
2010,01,19,11,36,9.00
2010,01,19,11,37,9.00
2010,01,19,11,38,9.00
2010,01,19,11,39,9.00
2010,01,19,11,40,9.00
2010,01,19,11,41,9.00
2010,01,19,11,42,9.00
2010,01,19,11,43,9.00
2010,01,19,11,44,9.00
2010,01,19,11,45,9.00
2010,01,19,11,46,9.10
2010,01,19,11,47,9.00
2010,01,19,11,48,9.10
2010,01,19,11,49,9.10
2010,01,19,11,50,9.10
2010,01,19,11,51,9.10
2010,01,19,11,52,9.10
2010,01,19,11,53,9.00
2010,01,19,11,54,9.00
2010,01,19,11,55,9.00
2010,01,19,11,56,9.10
2010,01,19,11,57,9.10
2010,01,19,11,58,9.10
2010,01,19,11,59,9.10
2010,01,19,12,00,9.10
2010,01,19,12,01,9.10
2010,01,19,12,02,9.10
2010,01,19,12,03,9.20
2010,01,19,12,04,9.20
2010,01,19,12,05,9.20
2010,01,19,12,06,9.20
2010,01,19,12,07,9.20
2010,01,19,12,08,9.20
2010,01,19,12,09,9.20
2010,01,19,12,10,9.30
2010,01,19,12,11,9.30
2010,01,19,12,12,9.30
2010,01,19,12,13,9.30
2010,01,19,12,14,9.30
2010,01,19,12,15,9.40
2010,01,19,12,16,9.40
2010,01,19,12,17,9.40
2010,01,19,12,18,9.40
2010,01,19,12,19,9.40
2010,01,19,12,20,9.50
2010,01,19,12,21,9.50
2010,01,19,12,22,9.50
2010,01,19,12,23,9.60
2010,01,19,12,24,9.60
2010,01,19,12,25,9.60
2010,01,19,12,26,9.60
2010,01,19,12,27,9.60
2010,01,19,12,28,9.60
2010,01,19,12,29,9.60
2010,01,19,12,30,9.60
2010,01,19,12,31,9.60
2010,01,19,12,32,9.60
2010,01,19,12,33,9.60
2010,01,19,12,34,9.60
2010,01,19,12,35,9.60
2010,01,19,12,36,9.60
2010,01,19,12,37,9.60
2010,01,19,12,38,9.60
2010,01,19,12,39,9.60
2010,01,19,12,40,9.70
2010,01,19,12,41,9.70
2010,01,19,12,42,9.70
2010,01,19,12,43,9.70
2010,01,19,12,44,9.70
2010,01,19,12,45,9.70
2010,01,19,12,46,9.70
2010,01,19,12,47,9.70
2010,01,19,12,48,9.80
2010,01,19,12,49,9.80
2010,01,19,12,50,9.80
2010,01,19,12,51,9.80
2010,01,19,12,52,9.80
2010,01,19,12,53,9.80
2010,01,19,12,54,9.80
2010,01,19,12,55,9.80
2010,01,19,12,56,9.80
2010,01,19,12,57,9.80
2010,01,19,12,58,9.80
2010,01,19,12,59,9.80
2010,01,19,13,00,9.80
2010,01,19,13,01,9.80
2010,01,19,13,02,9.80
2010,01,19,13,03,9.80
2010,01,19,13,04,9.80
2010,01,19,13,05,9.90
2010,01,19,13,06,9.90
2010,01,19,13,07,9.90
2010,01,19,13,08,9.90
2010,01,19,13,09,9.90
2010,01,19,13,10,9.90
2010,01,19,13,11,9.90
2010,01,19,13,12,9.90
2010,01,19,13,13,9.90
2010,01,19,13,14,10.00
2010,01,19,13,15,10.00
2010,01,19,13,16,10.00
2010,01,19,13,17,10.10
2010,01,19,13,18,10.10
2010,01,19,13,19,10.10
2010,01,19,13,20,10.10
2010,01,19,13,21,10.10
2010,01,19,13,22,10.10
2010,01,19,13,23,10.10
2010,01,19,13,24,10.10
2010,01,19,13,25,10.10
2010,01,19,13,26,10.10
2010,01,19,13,27,10.10
2010,01,19,13,28,10.10
2010,01,19,13,29,10.10
2010,01,19,13,30,10.20
2010,01,19,13,31,10.20
2010,01,19,13,32,10.20
2010,01,19,13,33,10.20
2010,01,19,13,34,10.10
2010,01,19,13,35,10.10
2010,01,19,13,36,10.10
2010,01,19,13,37,10.10
2010,01,19,13,38,10.10
2010,01,19,13,39,10.10
2010,01,19,13,40,10.10
2010,01,19,13,41,10.10
2010,01,19,13,42,10.10
2010,01,19,13,43,10.10
2010,01,19,13,44,10.10
2010,01,19,13,45,10.10
2010,01,19,13,46,10.10
2010,01,19,13,47,10.10
2010,01,19,13,48,10.10
2010,01,19,13,49,10.10
2010,01,19,13,50,10.10
2010,01,19,13,51,10.10
2010,01,19,13,52,10.10
2010,01,19,13,53,10.10
2010,01,19,13,54,10.10
2010,01,19,13,55,10.10
2010,01,19,13,56,10.00
2010,01,19,13,57,10.00
2010,01,19,13,58,10.00
2010,01,19,13,59,10.00
2010,01,19,14,00,10.00
2010,01,19,14,01,9.90
2010,01,19,14,02,10.00
2010,01,19,14,03,9.90
2010,01,19,14,04,9.90
2010,01,19,14,05,9.90
2010,01,19,14,06,9.90
2010,01,19,14,07,9.90
2010,01,19,14,08,9.90
2010,01,19,14,09,9.90
2010,01,19,14,10,9.90
2010,01,19,14,11,9.90
2010,01,19,14,12,9.90
2010,01,19,14,13,9.90
2010,01,19,14,14,9.90
2010,01,19,14,15,9.90
2010,01,19,14,16,9.90
2010,01,19,14,17,9.90
2010,01,19,14,18,9.90
2010,01,19,14,19,9.90
2010,01,19,14,20,9.90
2010,01,19,14,21,9.90
2010,01,19,14,22,9.90
2010,01,19,14,23,9.90
2010,01,19,14,24,9.90
2010,01,19,14,25,9.90
2010,01,19,14,26,9.90
2010,01,19,14,27,9.90
2010,01,19,14,28,9.90
2010,01,19,14,29,9.90
2010,01,19,14,30,9.90
2010,01,19,14,31,9.80
2010,01,19,14,32,9.80
2010,01,19,14,33,9.80
2010,01,19,14,34,9.80
2010,01,19,14,35,9.80
2010,01,19,14,36,9.80
2010,01,19,14,37,9.80
2010,01,19,14,38,9.80
2010,01,19,14,39,9.80
2010,01,19,14,40,9.80
2010,01,19,14,41,9.80
2010,01,19,14,42,9.80
2010,01,19,14,43,9.80
2010,01,19,14,44,9.80
2010,01,19,14,45,9.80
2010,01,19,14,46,9.80
2010,01,19,14,47,9.80
2010,01,19,14,48,9.80
2010,01,19,14,49,9.80
2010,01,19,14,50,9.80
2010,01,19,14,51,9.80
2010,01,19,14,52,9.80
2010,01,19,14,53,9.80
2010,01,19,14,54,9.90
2010,01,19,14,55,9.90
2010,01,19,14,56,9.90
2010,01,19,14,57,9.90
2010,01,19,14,58,9.80
2010,01,19,14,59,9.80
2010,01,19,15,00,9.80
2010,01,19,15,01,9.90
2010,01,19,15,02,9.80
2010,01,19,15,03,9.80
2010,01,19,15,04,9.80
2010,01,19,15,05,9.80
2010,01,19,15,06,9.90
2010,01,19,15,07,9.90
2010,01,19,15,08,10.00
2010,01,19,15,09,10.00
2010,01,19,15,10,10.10
2010,01,19,15,11,10.10
2010,01,19,15,12,10.10
2010,01,19,15,13,10.10
2010,01,19,15,14,10.10
2010,01,19,15,15,10.10
2010,01,19,15,16,10.10
2010,01,19,15,17,10.10
2010,01,19,15,18,10.20
2010,01,19,15,19,10.30
2010,01,19,15,20,10.30
2010,01,19,15,21,10.30
2010,01,19,15,22,10.40
2010,01,19,15,23,10.40
2010,01,19,15,24,10.40
2010,01,19,15,25,10.40
2010,01,19,15,26,10.40
2010,01,19,15,27,10.40
2010,01,19,15,28,10.30
2010,01,19,15,29,10.30
2010,01,19,15,30,10.30
2010,01,19,15,31,10.30
2010,01,19,15,32,10.30
2010,01,19,15,33,10.30
2010,01,19,15,34,10.30
2010,01,19,15,35,10.30
2010,01,19,15,36,10.30
2010,01,19,15,37,10.30
2010,01,19,15,38,10.30
2010,01,19,15,39,10.30
2010,01,19,15,40,10.40
2010,01,19,15,41,10.40
2010,01,19,15,42,10.40
2010,01,19,15,43,10.30
2010,01,19,15,44,10.30
2010,01,19,15,45,10.30
2010,01,19,15,46,10.20
2010,01,19,15,47,10.20
2010,01,19,15,48,10.20
2010,01,19,15,49,10.20
2010,01,19,15,50,10.20
2010,01,19,15,51,10.20
2010,01,19,15,52,10.30
2010,01,19,15,53,10.20
2010,01,19,15,54,10.20
2010,01,19,15,55,10.20
2010,01,19,15,56,10.10
2010,01,19,15,57,10.00
2010,01,19,15,58,10.00
2010,01,19,15,59,10.10
2010,01,19,16,00,10.10
2010,01,19,16,01,10.20
2010,01,19,16,02,10.20
2010,01,19,16,03,10.30
2010,01,19,16,04,10.30
2010,01,19,16,05,10.40
2010,01,19,16,06,10.50
2010,01,19,16,07,10.50
2010,01,19,16,08,10.50
2010,01,19,16,09,10.60
2010,01,19,16,10,10.60
2010,01,19,16,11,10.70
2010,01,19,16,12,10.70
2010,01,19,16,13,10.70
2010,01,19,16,14,10.70
2010,01,19,16,15,10.70
2010,01,19,16,16,10.60
2010,01,19,16,17,10.60
2010,01,19,16,18,10.50
2010,01,19,16,19,10.50
2010,01,19,16,20,10.50
2010,01,19,16,21,10.40
2010,01,19,16,22,10.40
2010,01,19,16,23,10.40
2010,01,19,16,24,10.40
2010,01,19,16,25,10.40
2010,01,19,16,26,10.40
2010,01,19,16,27,10.40
2010,01,19,16,28,10.40
2010,01,19,16,29,10.40
2010,01,19,16,30,10.40
2010,01,19,16,31,10.40
2010,01,19,16,32,10.30
2010,01,19,16,33,10.30
2010,01,19,16,34,10.30
2010,01,19,16,35,10.30
2010,01,19,16,36,10.30
2010,01,19,16,37,10.30
2010,01,19,16,38,10.30
2010,01,19,16,39,10.30
2010,01,19,16,40,10.30
2010,01,19,16,41,10.30
2010,01,19,16,42,10.30
2010,01,19,16,43,10.30
2010,01,19,16,44,10.30
2010,01,19,16,45,10.30
2010,01,19,16,46,10.30
2010,01,19,16,47,10.30
2010,01,19,16,48,10.40
2010,01,19,16,49,10.40
2010,01,19,16,50,10.40
2010,01,19,16,51,10.40
2010,01,19,16,52,10.50
2010,01,19,16,53,10.50
2010,01,19,16,54,10.50
2010,01,19,16,55,10.50
2010,01,19,16,56,10.50
2010,01,19,16,57,10.50
2010,01,19,16,58,10.50
2010,01,19,16,59,10.40
2010,01,19,17,00,10.40
2010,01,19,17,01,10.40
2010,01,19,17,02,10.30
2010,01,19,17,03,10.30
2010,01,19,17,04,10.30
2010,01,19,17,05,10.30
2010,01,19,17,06,10.30
2010,01,19,17,07,10.30
2010,01,19,17,08,10.20
2010,01,19,17,09,10.20
2010,01,19,17,10,10.20
2010,01,19,17,11,10.20
2010,01,19,17,12,10.20
2010,01,19,17,13,10.20
2010,01,19,17,14,10.20
2010,01,19,17,15,10.10
2010,01,19,17,16,10.10
2010,01,19,17,17,10.10
2010,01,19,17,18,10.10
2010,01,19,17,19,10.10
2010,01,19,17,20,10.10
2010,01,19,17,21,10.10
2010,01,19,17,22,10.10
2010,01,19,17,23,10.00
2010,01,19,17,24,10.00
2010,01,19,17,25,9.90
2010,01,19,17,26,9.90
2010,01,19,17,27,9.90
2010,01,19,17,28,9.90
2010,01,19,17,29,9.90
2010,01,19,17,30,9.80
2010,01,19,17,31,9.80
2010,01,19,17,32,9.80
2010,01,19,17,33,9.80
2010,01,19,17,34,9.80
2010,01,19,17,35,9.80
2010,01,19,17,36,9.80
2010,01,19,17,37,9.90
2010,01,19,17,38,9.90
2010,01,19,17,39,9.90
2010,01,19,17,40,10.00
2010,01,19,17,41,10.00
2010,01,19,17,42,10.00
2010,01,19,17,43,10.00
2010,01,19,17,44,10.00
2010,01,19,17,45,10.00
2010,01,19,17,46,9.90
2010,01,19,17,47,9.90
2010,01,19,17,48,9.90
2010,01,19,17,49,9.80
2010,01,19,17,50,9.80
2010,01,19,17,51,9.80
2010,01,19,17,52,9.80
2010,01,19,17,53,9.80
2010,01,19,17,54,9.80
2010,01,19,17,55,9.70
2010,01,19,17,56,9.70
2010,01,19,17,57,9.70
2010,01,19,17,58,9.70
2010,01,19,17,59,9.70
2010,01,19,18,00,9.70
2010,01,19,18,01,9.70
2010,01,19,18,02,9.80
2010,01,19,18,03,9.80
2010,01,19,18,04,9.80
2010,01,19,18,05,9.80
2010,01,19,18,06,9.80
2010,01,19,18,07,9.80
2010,01,19,18,08,9.80
2010,01,19,18,09,9.70
2010,01,19,18,10,9.70
2010,01,19,18,11,9.70
2010,01,19,18,12,9.70
2010,01,19,18,13,9.60
2010,01,19,18,14,9.60
2010,01,19,18,15,9.60
2010,01,19,18,16,9.60
2010,01,19,18,17,9.60
2010,01,19,18,18,9.50
2010,01,19,18,19,9.50
2010,01,19,18,20,9.40
2010,01,19,18,21,9.40
2010,01,19,18,22,9.40
2010,01,19,18,23,9.40
2010,01,19,18,24,9.40
2010,01,19,18,25,9.40
2010,01,19,18,26,9.40
2010,01,19,18,27,9.40
2010,01,19,18,28,9.40
2010,01,19,18,29,9.40
2010,01,19,18,30,9.40
2010,01,19,18,31,9.40
2010,01,19,18,32,9.40
2010,01,19,18,33,9.40
2010,01,19,18,34,9.50
2010,01,19,18,35,9.50
2010,01,19,18,36,9.50
2010,01,19,18,37,9.50
2010,01,19,18,38,9.60
2010,01,19,18,39,9.60
2010,01,19,18,40,9.60
2010,01,19,18,41,9.60
2010,01,19,18,42,9.60
2010,01,19,18,43,9.60
2010,01,19,18,44,9.60
2010,01,19,18,45,9.60
2010,01,19,18,46,9.50
2010,01,19,18,47,9.50
2010,01,19,18,48,9.50
2010,01,19,18,49,9.40
2010,01,19,18,50,9.40
2010,01,19,18,51,9.40
2010,01,19,18,52,9.30
2010,01,19,18,53,9.30
2010,01,19,18,54,9.30
2010,01,19,18,55,9.20
2010,01,19,18,56,9.20
2010,01,19,18,57,9.20
2010,01,19,18,58,9.20
2010,01,19,18,59,9.10
2010,01,19,19,00,9.10
2010,01,19,19,01,9.20
2010,01,19,19,02,9.20
2010,01,19,19,03,9.30
2010,01,19,19,04,9.40
2010,01,19,19,05,9.50
2010,01,19,19,06,9.70
2010,01,19,19,07,9.80
2010,01,19,19,08,10.00
2010,01,19,19,09,10.20
2010,01,19,19,10,10.30
2010,01,19,19,11,10.60
2010,01,19,19,12,10.90
2010,01,19,19,13,11.10
2010,01,19,19,14,11.30
2010,01,19,19,15,11.50
2010,01,19,19,16,11.60
2010,01,19,19,17,11.70
2010,01,19,19,18,11.80
2010,01,19,19,19,11.90
2010,01,19,19,20,12.00
2010,01,19,19,21,12.10
2010,01,19,19,22,12.20
2010,01,19,19,23,12.30
2010,01,19,19,24,12.30
2010,01,19,19,25,12.30
2010,01,19,19,26,12.30
2010,01,19,19,27,12.20
2010,01,19,19,28,12.30
2010,01,19,19,29,12.30
2010,01,19,19,30,12.30
2010,01,19,19,31,12.30
2010,01,19,19,32,12.30
2010,01,19,19,33,12.30
2010,01,19,19,34,12.40
2010,01,19,19,35,12.40
2010,01,19,19,36,12.50
2010,01,19,19,37,12.50
2010,01,19,19,38,12.60
2010,01,19,19,39,12.70
2010,01,19,19,40,12.80
2010,01,19,19,41,12.90
2010,01,19,19,42,12.90
2010,01,19,19,43,13.00
2010,01,19,19,44,13.00
2010,01,19,19,45,13.00
2010,01,19,19,46,13.00
2010,01,19,19,47,13.00
2010,01,19,19,48,13.10
2010,01,19,19,49,13.10
2010,01,19,19,50,13.00
2010,01,19,19,51,13.00
2010,01,19,19,52,12.90
2010,01,19,19,53,12.90
2010,01,19,19,54,12.90
2010,01,19,19,55,12.90
2010,01,19,19,56,13.00
2010,01,19,19,57,13.00
2010,01,19,19,58,13.00
2010,01,19,19,59,13.00
2010,01,19,20,00,13.00
2010,01,19,20,01,12.90
2010,01,19,20,02,12.90
2010,01,19,20,03,12.90
2010,01,19,20,04,12.90
2010,01,19,20,05,12.90
2010,01,19,20,06,12.90
2010,01,19,20,07,12.90
2010,01,19,20,08,12.90
2010,01,19,20,09,12.90
2010,01,19,20,10,12.90
2010,01,19,20,11,12.90
2010,01,19,20,12,12.90
2010,01,19,20,13,12.90
2010,01,19,20,14,12.90
2010,01,19,20,15,12.80
2010,01,19,20,16,12.80
2010,01,19,20,17,12.70
2010,01,19,20,18,12.70
2010,01,19,20,19,12.70
2010,01,19,20,20,12.70
2010,01,19,20,21,12.70
2010,01,19,20,22,12.70
2010,01,19,20,23,12.70
2010,01,19,20,24,12.70
2010,01,19,20,25,12.70
2010,01,19,20,26,12.60
2010,01,19,20,27,12.60
2010,01,19,20,28,12.60
2010,01,19,20,29,12.60
2010,01,19,20,30,12.70
2010,01,19,20,31,12.70
2010,01,19,20,32,12.70
2010,01,19,20,33,12.70
2010,01,19,20,34,12.70
2010,01,19,20,35,12.70
2010,01,19,20,36,12.70
2010,01,19,20,37,12.70
2010,01,19,20,38,12.70
2010,01,19,20,39,12.80
2010,01,19,20,40,12.80
2010,01,19,20,41,12.80
2010,01,19,20,42,12.80
2010,01,19,20,43,12.80
2010,01,19,20,44,12.80
2010,01,19,20,45,12.80
2010,01,19,20,46,12.70
2010,01,19,20,47,12.70
2010,01,19,20,48,12.70
2010,01,19,20,49,12.70
2010,01,19,20,50,12.70
2010,01,19,20,51,12.70
2010,01,19,20,52,12.70
2010,01,19,20,53,12.70
2010,01,19,20,54,12.70
2010,01,19,20,55,12.70
2010,01,19,20,56,12.70
2010,01,19,20,57,12.70
2010,01,19,20,58,12.70
2010,01,19,20,59,12.70
2010,01,19,21,00,12.60
2010,01,19,21,01,12.60
2010,01,19,21,02,12.60
2010,01,19,21,03,12.50
2010,01,19,21,04,12.50
2010,01,19,21,05,12.50
2010,01,19,21,06,12.40
2010,01,19,21,07,12.40
2010,01,19,21,08,12.40
2010,01,19,21,09,12.30
2010,01,19,21,10,12.30
2010,01,19,21,11,12.30
2010,01,19,21,12,12.20
2010,01,19,21,13,12.20
2010,01,19,21,14,12.20
2010,01,19,21,15,12.10
2010,01,19,21,16,12.10
2010,01,19,21,17,12.10
2010,01,19,21,18,12.00
2010,01,19,21,19,12.00
2010,01,19,21,20,11.90
2010,01,19,21,21,11.90
2010,01,19,21,22,11.80
2010,01,19,21,23,11.80
2010,01,19,21,24,11.80
2010,01,19,21,25,11.80
2010,01,19,21,26,11.80
2010,01,19,21,27,11.80
2010,01,19,21,28,11.80
2010,01,19,21,29,11.80
2010,01,19,21,30,11.80
2010,01,19,21,31,11.80
2010,01,19,21,32,11.70
2010,01,19,21,33,11.70
2010,01,19,21,34,11.70
2010,01,19,21,35,11.70
2010,01,19,21,36,11.70
2010,01,19,21,37,11.60
2010,01,19,21,38,11.60
2010,01,19,21,39,11.60
2010,01,19,21,40,11.60
2010,01,19,21,41,11.60
2010,01,19,21,42,11.50
2010,01,19,21,43,11.50
2010,01,19,21,44,11.40
2010,01,19,21,45,11.40
2010,01,19,21,46,11.40
2010,01,19,21,47,11.40
2010,01,19,21,48,11.40
2010,01,19,21,49,11.40
2010,01,19,21,50,11.40
2010,01,19,21,51,11.40
2010,01,19,21,52,11.40
2010,01,19,21,53,11.40
2010,01,19,21,54,11.40
2010,01,19,21,55,11.40
2010,01,19,21,56,11.40
2010,01,19,21,57,11.40
2010,01,19,21,58,11.30
2010,01,19,21,59,11.30
2010,01,19,22,00,11.30
2010,01,19,22,01,11.20
2010,01,19,22,02,11.20
2010,01,19,22,03,11.20
2010,01,19,22,04,11.20
2010,01,19,22,05,11.20
2010,01,19,22,06,11.10
2010,01,19,22,07,11.10
2010,01,19,22,08,11.10
2010,01,19,22,09,11.10
2010,01,19,22,10,11.10
2010,01,19,22,11,11.10
2010,01,19,22,12,11.00
2010,01,19,22,13,11.00
2010,01,19,22,14,10.90
2010,01,19,22,15,10.90
2010,01,19,22,16,10.90
2010,01,19,22,17,10.90
2010,01,19,22,18,11.00
2010,01,19,22,19,11.00
2010,01,19,22,20,11.00
2010,01,19,22,21,11.00
2010,01,19,22,22,11.00
2010,01,19,22,23,11.00
2010,01,19,22,24,11.10
2010,01,19,22,25,11.10
2010,01,19,22,26,11.10
2010,01,19,22,27,11.10
2010,01,19,22,28,11.10
2010,01,19,22,29,11.10
2010,01,19,22,30,11.00
2010,01,19,22,31,10.90
2010,01,19,22,32,10.90
2010,01,19,22,33,10.80
2010,01,19,22,34,10.80
2010,01,19,22,35,10.80
2010,01,19,22,36,10.70
2010,01,19,22,37,10.70
2010,01,19,22,38,10.60
2010,01,19,22,39,10.50
2010,01,19,22,40,10.50
2010,01,19,22,41,10.50
2010,01,19,22,42,10.40
2010,01,19,22,43,10.40
2010,01,19,22,44,10.30
2010,01,19,22,45,10.30
2010,01,19,22,46,10.30
2010,01,19,22,47,10.30
2010,01,19,22,48,10.30
2010,01,19,22,49,10.40
2010,01,19,22,50,10.30
2010,01,19,22,51,10.30
2010,01,19,22,52,10.30
2010,01,19,22,53,10.30
2010,01,19,22,54,10.30
2010,01,19,22,55,10.30
2010,01,19,22,56,10.30
2010,01,19,22,57,10.30
2010,01,19,22,58,10.30
2010,01,19,22,59,10.30
2010,01,19,23,00,10.30
2010,01,19,23,01,10.20
2010,01,19,23,02,10.10
2010,01,19,23,03,10.00
2010,01,19,23,04,9.90
2010,01,19,23,05,9.90
2010,01,19,23,06,9.80
2010,01,19,23,07,9.80
2010,01,19,23,08,9.70
2010,01,19,23,09,9.60
2010,01,19,23,10,9.60
2010,01,19,23,11,9.60
2010,01,19,23,12,9.50
2010,01,19,23,13,9.50
2010,01,19,23,14,9.40
2010,01,19,23,15,9.40
2010,01,19,23,16,9.40
2010,01,19,23,17,9.40
2010,01,19,23,18,9.40
2010,01,19,23,19,9.30
2010,01,19,23,20,9.30
2010,01,19,23,21,9.40
2010,01,19,23,22,9.40
2010,01,19,23,23,9.50
2010,01,19,23,24,9.50
2010,01,19,23,25,9.60
2010,01,19,23,26,9.60
2010,01,19,23,27,9.60
2010,01,19,23,28,9.70
2010,01,19,23,29,9.70
2010,01,19,23,30,9.70
2010,01,19,23,31,9.70
2010,01,19,23,32,9.80
2010,01,19,23,33,9.90
2010,01,19,23,34,9.90
2010,01,19,23,35,10.00
2010,01,19,23,36,10.00
2010,01,19,23,37,10.10
2010,01,19,23,38,10.10
2010,01,19,23,39,10.10
2010,01,19,23,40,10.20
2010,01,19,23,41,10.20
2010,01,19,23,42,10.20
2010,01,19,23,43,10.20
2010,01,19,23,44,10.10
2010,01,19,23,45,10.10
2010,01,19,23,46,10.10
2010,01,19,23,47,10.10
2010,01,19,23,48,10.10
2010,01,19,23,49,10.10
2010,01,19,23,50,10.10
2010,01,19,23,51,10.10
2010,01,19,23,52,10.00
2010,01,19,23,53,10.00
2010,01,19,23,54,9.90
2010,01,19,23,55,9.90
2010,01,19,23,56,9.90
2010,01,19,23,57,9.90
2010,01,19,23,58,9.90
2010,01,19,23,59,9.90
